Hourly Data Report for March 13, 2015

All times are specified in Local Standard Time (LST). Add 1 hour to adjust for Daylight Saving Time where and when it is observed.

MIRAMICHI RCS
NEW BRUNSWICK

47°00'34.000" N
65°27'54.000" W
33.00 m
8100989
71744
ACQ

Download Data

Hourly Data (March 2015)
Hourly Data Report for March 13, 2015
TIME Temp Definition
°C
Dew Point Definition
°C
Rel Hum Definition
%
Wind Dir Definition
10's deg

Wind Spd Definition
km/h
Visibility Definition
km
Stn Press Definition
kPa
Hmdx Definition


Wind Chill Definition


Weather Definition


00:00 -11.1 -20.4 46 31 19   102.09   -19 LegendNANA
01:00 -12.0 -21.0 47 30 12   102.16   -18 LegendNANA
02:00 -12.9 -21.2 50 31 12   102.22   -19 LegendNANA
03:00 -14.0 -21.1 55 29 11   102.24   -20 LegendNANA
04:00 -14.1 -22.3 50 30 15   102.28   -22 LegendNANA
05:00 -14.9 -22.2 53 30 10   102.34   -21 LegendNANA
06:00 -15.7 -21.7 60 30 9   102.39   -22 LegendNANA
07:00 -15.9 -22.5 57 30 9   102.45   -22 LegendNANA
08:00 -14.8 -22.6 52 29 14   102.50   -22 LegendNANA
09:00 -13.6 -22.5 47 30 19   102.50   -22 LegendNANA
10:00 -12.2 -22.4 42 31 17   102.50   -20 LegendNANA
11:00 -10.8 -22.6 37 32 15   102.47   -18 LegendNANA
12:00 -9.4 -21.8 36 28 18   102.37   -17 LegendNANA
13:00 -8.1 -21.0 35 29 17   102.28   -15 LegendNANA
14:00 -7.0 -19.9 35 28 21   102.18   -14 LegendNANA
15:00 -5.9 -19.3 34 28 18   102.12   -12 LegendNANA
16:00 -5.4 -19.6 32 29 20   102.06   -12 LegendNANA
17:00 -5.1 -19.2 32 28 15   102.06   -11 LegendNANA
18:00 -5.6 -20.1 31 29 17   102.09   -12 LegendNANA
19:00 -7.2 -19.4 37 28 13   102.13   -13 LegendNANA
20:00 -8.5 -19.7 40 29 9   102.16   -13 LegendNANA
21:00 -10.5 -19.8 46 27 8   102.15   -15 LegendNANA
22:00 -11.7 -20.4 48 26 5   102.16   -15 LegendNANA
23:00 -13.9 -20.7 56 26 7   102.11   -19 LegendNANA

Notes on Data Quality.

Legend

  • E = Estimated
  • M = Missing
  • NA = Not Available
Date modified: